N5XJB Weather Reports


time (UTC)temp
C
wind
direction
speed
KPH
gust
KPH
rain 1hr
cm
rain 24hr
cm
rain mn
cm
humidity
%
barometer
mb
20260505011908 24 129 1.6 1.6 0.00 0.00 0.00 74 1011.4
20260505011405 24 122 0.0 0.0 0.00 0.00 0.00 74 1011.4
20260505010901 24 156 0.0 0.0 0.00 0.00 0.00 74 1011.4
20260505010357 24 180 1.6 1.6 0.00 0.00 0.00 73 1011.4
20260505005853 24 276 0.0 0.0 0.00 0.00 0.00 73 1011.4
20260505005350 24 204 0.0 0.0 0.00 0.00 0.00 72 1011.4
20260505004848 25 300 1.6 1.6 0.00 0.00 0.00 72 1011.4
20260505004344 25 121 0.0 0.0 0.00 0.00 0.00 72 1011.4
20260505003841 25 120 0.0 0.0 0.00 0.00 0.00 72 1011.0
20260505003338 25 79 3.2 3.2 0.00 0.00 0.00 72 1011.0
20260505002834 25 77 3.2 3.2 0.00 0.00 0.00 71 1011.0
20260505002331 25 108 1.6 1.6 0.00 0.00 0.00 71 1011.0
20260505001830 25 127 0.0 0.0 0.00 0.00 0.00 70 1011.0
20260505001326 25 132 0.0 0.0 0.00 0.00 0.00 70 1011.4
20260505000824 25 132 0.0 0.0 0.00 0.00 0.00 70 1011.4
20260505000321 25 270 0.0 0.0 0.00 0.00 0.00 69 1011.4
20260504235818 25 94 3.2 3.2 0.00 0.00 0.00 68 1011.4
20260504235315 25 114 3.2 3.2 0.00 0.00 0.00 68 1011.4
20260504234811 25 156 0.0 0.0 0.00 0.00 0.00 68 1011.4
20260504234309 25 186 6.4 6.4 0.00 0.00 0.00 68 1011.4
20260504233805 25 206 3.2 3.2 0.00 0.00 0.00 68 1011.7
20260504233301 26 168 3.2 3.2 0.00 0.00 0.00 67 1011.4
20260504232758 26 282 3.2 3.2 0.00 0.00 0.00 66 1011.4
20260504232255 26 115 3.2 3.2 0.00 0.00 0.00 65 1011.7
20260504231752 26 116 3.2 3.2 0.00 0.00 0.00 65 1011.7
20260504231248 26 96 8.0 9.7 0.00 0.00 0.00 66 1011.7
20260504230744 26 126 0.0 0.0 0.00 0.00 0.00 65 1011.7
20260504230243 26 115 3.2 3.2 0.00 0.00 0.00 64 1011.7
20260504225741 26 282 0.0 0.0 0.00 0.00 0.00 64 1012.1
20260504225237 26 132 3.2 3.2 0.00 0.00 0.00 64 1011.7
20260504224735 26 143 3.2 3.2 0.00 0.00 0.00 64 1012.1
20260504224232 26 111 3.2 3.2 0.00 0.00 0.00 64 1012.1
20260504223728 26 61 3.2 3.2 0.00 0.00 0.00 64 1012.1
20260504223223 26 130 3.2 3.2 0.00 0.00 0.00 64 1012.1
20260504222721 26 129 0.0 0.0 0.00 0.00 0.00 64 1012.1
20260504222218 26 139 1.6 1.6 0.00 0.00 0.00 63 1012.1
20260504221715 27 108 3.2 3.2 0.00 0.00 0.00 62 1012.4
20260504221212 27 61 0.0 0.0 0.00 0.00 0.00 60 1012.4
20260504220708 27 120 3.2 3.2 0.00 0.00 0.00 59 1012.4
20260504220206 27 90 4.8 4.8 0.00 0.00 0.00 59 1012.4
20260504215702 27 90 4.8 4.8 0.00 0.00 0.00 59 1012.4
20260504215200 27 210 0.0 0.0 0.00 0.00 0.00 58 1012.4
20260504214655 28 79 3.2 3.2 0.00 0.00 0.00 56 1012.4
20260504214152 28 286 0.0 0.0 0.00 0.00 0.00 56 1012.7
20260504213649 28 264 0.0 0.0 0.00 0.00 0.00 56 1012.4
20260504213145 28 195 0.0 0.0 0.00 0.00 0.00 56 1012.4
20260504212642 28 93 0.0 0.0 0.00 0.00 0.00 56 1012.7
20260504212138 28 56 3.2 3.2 0.00 0.00 0.00 55 1012.4
20260504211636 28 132 3.2 3.2 0.00 0.00 0.00 56 1013.1
20260504211132 28 128 3.2 3.2 0.00 0.00 0.00 54 1012.7
20260504210630 29 113 0.0 0.0 0.00 0.00 0.00 53 1012.7
20260504210126 28 144 3.2 3.2 0.00 0.00 0.00 50 1012.7
20260504205624 28 168 3.2 3.2 0.00 0.00 0.00 51 1012.7
20260504205121 28 215 0.0 0.0 0.00 0.00 0.00 53 1013.1
20260504204620 29 102 3.2 3.2 0.00 0.00 0.00 51 1013.1
20260504204118 30 72 4.8 4.8 0.00 0.00 0.00 51 1013.1
20260504203617 29 120 0.0 0.0 0.00 0.00 0.00 52 1013.1
20260504203114 28 288 0.0 0.0 0.00 0.00 0.00 52 1013.1
20260504202609 28 117 3.2 3.2 0.00 0.00 0.00 52 1013.1
20260504202106 28 126 3.2 3.2 0.00 0.00 0.00 51 1013.4
20260504201603 28 50 0.0 0.0 0.00 0.00 0.00 53 1013.7
20260504201101 28 66 1.6 1.6 0.00 0.00 0.00 54 1013.7
20260504200556 28 163 1.6 1.6 0.00 0.00 0.00 53 1013.7
20260504200054 28 264 0.0 0.0 0.00 0.00 0.00 52 1014.1
20260504195550 29 65 3.2 3.2 0.00 0.00 0.00 53 1014.1
20260504195046 28 60 3.2 3.2 0.00 0.00 0.00 51 1014.1
20260504194543 29 106 3.2 3.2 0.00 0.00 0.00 51 1014.1
20260504194038 30 186 0.0 0.0 0.00 0.00 0.00 50 1014.1
20260504193535 29 332 3.2 3.2 0.00 0.00 0.00 52 1014.4
20260504193034 29 306 0.0 0.0 0.00 0.00 0.00 52 1014.4
20260504192532 28 306 0.0 0.0 0.00 0.00 0.00 53 1014.4
20260504192030 28 105 0.0 0.0 0.00 0.00 0.00 53 1014.8
20260504191527 28 100 0.0 0.0 0.00 0.00 0.00 52 1014.4
20260504191023 29 122 3.2 3.2 0.00 0.00 0.00 50 1014.4
20260504190519 29 51 3.2 3.2 0.00 0.00 0.00 50 1014.8
20260504190016 29 306 3.2 3.2 0.00 0.00 0.00 53 1014.8
20260504185513 28 163 0.0 0.0 0.00 0.00 0.00 52 1014.8
20260504185009 28 126 0.0 0.0 0.00 0.00 0.00 53 1015.1
20260504184504 28 126 3.2 3.2 0.00 0.00 0.00 52 1015.1
20260504184000 27 62 3.2 3.2 0.00 0.00 0.00 55 1015.1
20260504183458 28 89 1.6 1.6 0.00 0.00 0.00 53 1015.1
20260504182956 28 115 3.2 3.2 0.00 0.00 0.00 55 1014.8
20260504182452 28 252 3.2 3.2 0.00 0.00 0.00 51 1015.1
20260504181950 28 280 4.8 4.8 0.00 0.00 0.00 52 1014.8
20260504181446 28 83 3.2 3.2 0.00 0.00 0.00 53 1014.8
20260504180945 28 150 3.2 3.2 0.00 0.00 0.00 54 1015.1
20260504180444 28 120 3.2 3.2 0.00 0.00 0.00 51 1015.1
20260504175941 28 91 0.0 0.0 0.00 0.00 0.00 50 1015.4
20260504175438 27 144 0.0 0.0 0.00 0.00 0.00 53 1015.8
20260504174936 27 108 3.2 3.2 0.00 0.00 0.00 54 1015.4
20260504174433 27 199 3.2 3.2 0.00 0.00 0.00 55 1015.4
20260504173931 27 217 0.0 0.0 0.00 0.00 0.00 54 1015.8
20260504173426 27 174 3.2 3.2 0.00 0.00 0.00 54 1015.8
20260504172925 27 115 0.0 0.0 0.00 0.00 0.00 54 1015.8
20260504172420 27 234 0.0 0.0 0.00 0.00 0.00 55 1015.8
20260504171917 27 174 3.2 3.2 0.00 0.00 0.00 56 1015.8
20260504171414 27 144 3.2 3.2 0.00 0.00 0.00 54 1016.1
20260504170911 27 205 3.2 3.2 0.00 0.00 0.00 55 1016.1
20260504170407 27 113 0.0 0.0 0.00 0.00 0.00 55 1016.1
20260504160326 27 84 0.0 0.0 0.00 0.00 0.00 55 1016.8
20260504150751 25 318 0.0 0.0 0.00 0.00 0.00 60 1016.8
20260504150248 25 127 0.0 0.0 0.00 0.00 0.00 59 1017.1
20260504141217 23 99 0.0 0.0 0.00 0.00 0.00 61 1016.8
20260504140714 24 155 0.0 0.0 0.00 0.00 0.00 60 1017.1
20260504140209 23 162 3.2 3.2 0.00 0.00 0.00 61 1016.8
20260504130638 20 158 0.0 0.0 0.00 0.00 0.00 68 1016.8
20260504130134 19 160 0.0 0.0 0.00 0.00 0.00 68 1016.8
20260504110526 13 246 0.0 0.0 0.00 0.00 0.00 90 1016.5
20260504100442 14 246 0.0 0.0 0.00 0.00 0.00 88 1016.8
20260504081835 16 246 0.0 0.0 0.00 0.00 0.00 81 1017.5
20260504081332 16 246 0.0 0.0 0.00 0.00 0.00 81 1017.5
20260504080828 16 246 0.0 0.0 0.00 0.00 0.00 80 1017.5
20260504080325 16 246 0.0 0.0 0.00 0.00 0.00 80 1017.5
20260504070252 17 246 0.0 0.0 0.00 0.00 0.00 72 1018.9
20260504060213 17 246 0.0 0.0 0.00 0.00 0.00 73 1018.9
20260504050641 17 246 0.0 0.0 0.00 0.00 0.00 72 1019.3
20260504050138 16 246 0.0 0.0 0.00 0.00 0.00 75 1019.3
20260504045635 17 246 0.0 0.0 0.00 0.00 0.00 75 1019.3
20260504045135 17 246 0.0 0.0 0.00 0.00 0.00 74 1019.6
20260504044633 17 246 0.0 0.0 0.00 0.00 0.00 74 1019.6
20260504044129 17 246 0.0 0.0 0.00 0.00 0.00 73 1019.6
20260504043626 17 246 0.0 0.0 0.00 0.00 0.00 72 1019.6
20260504043124 17 246 0.0 0.0 0.00 0.00 0.00 70 1019.6
20260504042621 18 246 0.0 0.0 0.00 0.00 0.00 70 1019.6
20260504042117 18 246 0.0 0.0 0.00 0.00 0.00 67 1019.6
20260504041613 18 246 0.0 0.0 0.00 0.00 0.00 67 1019.6
20260504041110 18 246 0.0 0.0 0.00 0.00 0.00 66 1019.6
20260504040607 18 246 0.0 0.0 0.00 0.00 0.00 65 1019.6
20260504040104 19 246 0.0 0.0 0.00 0.00 0.00 65 1019.6
20260504035600 19 246 0.0 0.0 0.00 0.00 0.00 64 1019.6
20260504035056 19 138 0.0 0.0 0.00 0.00 0.00 64 1019.6
20260504034555 19 138 0.0 0.0 0.00 0.00 0.00 62 1019.6
20260504034051 19 138 0.0 0.0 0.00 0.00 0.00 64 1019.6
20260504033549 19 138 0.0 0.0 0.00 0.00 0.00 62 1019.6
20260504033046 20 138 0.0 0.0 0.00 0.00 0.00 62 1019.6
20260504032543 20 138 0.0 0.0 0.00 0.00 0.00 62 1019.6
20260504032040 20 138 0.0 0.0 0.00 0.00 0.00 62 1019.6
20260504031537 20 138 0.0 0.0 0.00 0.00 0.00 61 1019.6
20260504031033 20 138 0.0 0.0 0.00 0.00 0.00 59 1019.3
20260504030531 20 138 0.0 0.0 0.00 0.00 0.00 60 1019.3
20260504030027 20 138 0.0 0.0 0.00 0.00 0.00 59 1019.6
20260504025524 20 138 0.0 0.0 0.00 0.00 0.00 59 1019.6
20260504025020 20 138 0.0 0.0 0.00 0.00 0.00 57 1019.3
20260504024518 21 138 0.0 0.0 0.00 0.00 0.00 56 1019.3
20260504024015 21 138 0.0 0.0 0.00 0.00 0.00 56 1019.6
20260504023511 21 148 0.0 0.0 0.00 0.00 0.00 56 1019.6
20260504023007 21 149 1.6 1.6 0.00 0.00 0.00 55 1019.3
20260504022503 21 108 0.0 0.0 0.00 0.00 0.00 54 1019.3
20260504022000 21 95 0.0 0.0 0.00 0.00 0.00 54 1018.9
20260504021457 21 141 1.6 1.6 0.00 0.00 0.00 54 1018.9
20260504020954 21 127 0.0 0.0 0.00 0.00 0.00 54 1018.9
20260504020451 21 142 0.0 0.0 0.00 0.00 0.00 54 1018.9
20260504015948 21 142 0.0 0.0 0.00 0.00 0.00 53 1018.9
20260504015444 22 138 0.0 0.0 0.00 0.00 0.00 53 1018.9
20260504014939 22 97 0.0 0.0 0.00 0.00 0.00 53 1018.9
20260504014436 22 96 0.0 0.0 0.00 0.00 0.00 52 1018.9
20260504013933 22 234 1.6 1.6 0.00 0.00 0.00 51 1018.6
20260504013432 22 114 3.2 3.2 0.00 0.00 0.00 51 1018.6
20260504012927 22 96 0.0 0.0 0.00 0.00 0.00 51 1018.9
20260504012425 22 132 0.0 0.0 0.00 0.00 0.00 50 1018.6